Flag for Germany Weather past 2 weeks in Bad Nauheim, Hesse, Germany

Now
43 °F

Passing clouds.


Feels Like: 40 °F
Forecast: 40 / 52 °F
Wind: 6 mph from West

Location: Giessen

Current Time: Mar 30, 2015 at 8:36:15 PM

Latest Report: Mar 30, 2015 at 8:00 PM


Visibility: 44 mi

Pressure: 29.86 "Hg

Humidity: 55%

Dew point: 28 °F

Location of Bad NauheimLocation

Historic Weather in Bad Nauheim — Graph

°F

Bad Nauheim temperature yesterday

Maximum temperature yesterday: 53 °F (at 8:00 PM)
Minimum temperature yesterday: 46 °F (at 11:00 PM)
Average temperature yesterday: 50 °F

Past Weeks' High & Low Weather Summary

 TemperatureHumidityPressure
High63 °F (Mar 18, 3:00 PM)100% (Mar 20, 7:00 AM)30.34 "Hg (Mar 20, 7:00 AM)
Low26 °F (Mar 23, 6:00 AM)35% (Mar 20, 5:00 PM)29.32 "Hg (Mar 29, 9:00 PM)
Average44 °F78%30.03 "Hg
* Reported Mar 15 6:00 PM — Mar 30 7:00 PM, Bad Nauheim, Weather by CustomWeather, © 2015

Note: Actual official high and low records may vary slightly from our data, if they occured in-between our weather recording intervals... More about our weather records

Advertising

Bad Nauheim weather history for previous 24 hours

 ConditionsComfort  
Time TempWeatherWind HumidityBarometerVisibility
7:00 PM
Mon, Mar 30
45 °FScattered clouds.12 mph49%29.84 "Hg19 mi
6:00 PM47 °FPartly sunny.13 mph49%29.80 "Hg14 mi
5:00 PM44 °FScattered clouds.16 mph63%29.78 "Hg22 mi
4:00 PM45 °FSunny.12 mph64%29.74 "Hg8 mi
3:00 PM44 °FScattered clouds.10 mph79%29.72 "Hg11 mi
2:00 PM45 °FPartly sunny.12 mph60%29.69 "Hg19 mi
1:00 PM48 °FOvercast.10 mph52%29.65 "Hg25 mi
12:00 PM47 °FPartly sunny.5 mph66%29.62 "Hg22 mi
11:00 AM43 °FLight freezing rain. Partly sunny.16 mph73%29.60 "Hg14 mi
10:00 AM44 °FOvercast.10 mph68%29.57 "Hg25 mi
9:00 AM44 °FPassing clouds.9 mph70%29.55 "Hg19 mi
8:00 AM42 °FPartly sunny.9 mph73%29.53 "Hg19 mi
7:00 AM42 °FPassing clouds.9 mph77%29.50 "Hg37 mi
6:00 AM42 °FPassing clouds.9 mph78%29.44 "Hg40 mi
4:00 AM44 °FRain. Low clouds.7 mph87%29.44 "Hg8 mi
3:00 AM45 °FOvercast.8 mph75%29.44 "Hg34 mi
2:00 AM46 °FOvercast.10 mph75%29.44 "Hg31 mi
1:00 AM46 °FLow clouds.9 mph82%29.41 "Hg25 mi
12:00 AM47 °FOvercast.12 mph81%29.38 "Hg31 mi
11:00 PM
Sun, Mar 29
46 °FRain. Low clouds.13 mph85%29.38 "Hg12 mi
10:00 PM52 °FLow clouds.13 mph81%29.32 "Hg43 mi
9:00 PM51 °FRain. Low clouds.10 mph90%29.32 "Hg2 mi
8:00 PM53 °FLow clouds.14 mph84%29.35 "Hg43 mi
Weather by CustomWeather, © 2015

See weather overviewHow to use our weather pages